Regional Weather Roundup
Issued by NWS

Home | Current Version | Previous Version | Graphics & Text | Print | Product List | Glossary On
Versions: 1 2 3 4 5 6 7 8 9 10 11 12 13 14 15 16 17 18 19 20 21 22 23 24 25 26 27 28 29 30 31 32 33 34 35 36 37 38 39 40 41 42 43 44 45 46 47 48 49 50
000
ASUS43 KLOT 231803
RWRIL

ILLINOIS REGIONAL WEATHER ROUNDUP
NATIONAL WEATHER SERVICE CHICAGO/ROMEOVILLE IL
100 PM CDT SUN APR 23 2017

NOTE: "FAIR" INDICATES FEW OR NO CLOUDS BELOW 12,000 FEET WITH NO
SIGNIFICANT WEATHER AND/OR OBSTRUCTIONS TO VISIBILITY.

* THESE STATIONS ARE NOT UNDER NWS QUALITY CONTROL. THEY ALSO MAY NOT
  REPORT WEATHER SUCH AS PRECIPITATION OR FOG.

ILZ001-002-007-009-015-016-024-231900-
NORTHWEST ILLINOIS

CITY           SKY/WX    TMP DP  RH WIND       PRES   REMARKS
MOLINE         SUNNY     69  31  24 N6        30.09F
6HR MIN TEMP:  37; 6HR MAX TEMP:  69;

STERLING*      SUNNY     69  37  30 NW6       30.10F
SAVANNA*       SUNNY     66  34  30 SW3       30.10F
$$

ILZ003-004-008-010-011-017-018-231900-
NORTH CENTRAL ILLINOIS

CITY           SKY/WX    TMP DP  RH WIND       PRES   REMARKS
ROCKFORD       MOSUNNY   70  35  27 NW3       30.10F
6HR MIN TEMP:  37; 6HR MAX TEMP:  70;

FREEPORT*      SUNNY     65  34  30 CALM      30.11F
ROCHELLE*      SUNNY     66  36  32 N7        30.10F
DE KALB*       SUNNY     66  32  28 NE5       30.10F
PERU*          SUNNY     66  29  25 N8        30.10F
$$

ILZ005-006-012>014-019>023-231900-
NORTHEAST ILLINOIS

CITY           SKY/WX    TMP DP  RH WIND       PRES   REMARKS
CHICAGO-OHARE  SUNNY     69  24  18 N5        30.08F
6HR MIN TEMP:  41; 6HR MAX TEMP:  70;

CHICAGO-MIDWAY SUNNY     69  29  22 NE6       30.09F
6HR MIN TEMP:  43; 6HR MAX TEMP:  69;

AURORA         SUNNY     68  31  25 CALM      30.09F
6HR MIN TEMP:  34; 6HR MAX TEMP:  68;

LANSING*       SUNNY     65  31  28 N6        30.10F
WAUKEGAN       SUNNY     68  35  29 N9        30.08F
6HR MIN TEMP:  42; 6HR MAX TEMP:  68;

DUPAGE AIRPORT SUNNY     68  30  24 CALM      30.08F
6HR MIN TEMP:  36; 6HR MAX TEMP:  69;

WHEELING       SUNNY     68  31  25 NW8       30.10F
6HR MIN TEMP:  38; 6HR MAX TEMP:  68;

MORRIS*        SUNNY     67  29  24 CALM      30.09F
NORTHERLY ISL    N/A     56  42  59 E7          N/A
$$

LMZ740>746-231900-
SOUTHERN LAKE MICHIGAN

STATION/POSITION SKY/WX   TEMP    WIND        PRES    VSBY  WAVE
                          AIR SEA DIR/SP/G                  HT/PER
                          (F)     (DEG/KT/KT) (MB)    (MI)  (FT/S)
HARRISON CRIB              57     100/  5/  5   N/A
BURNHAM HARBOR             56      90/  6/  8   N/A
CALUMET HARBOR             54      60/  7/  7 1019.2F
BURNS HARBOR               52      50/  5/  6 1020.3F
MICHIGAN CITY              49      10/  4/  5   N/A
ST. JOSEPH                 49 51  360/  4/  6 1020.5F         0
$$

ILZ025>027-034>036-040-047-049-050-058-095>099-231900-
WEST-CENTRAL ILLINOIS

CITY           SKY/WX    TMP DP  RH WIND       PRES   REMARKS
QUINCY         SUNNY     67  29  24 E10       30.10F
GALESBURG*     SUNNY     67  35  30 N10       30.09F
MACOMB*        SUNNY     67  31  26 N7        30.12F
JACKSONVILLE*  SUNNY     66  31  27 N8        30.09F
PITTSFIELD*    SUNNY     65  33  30 NE7       30.11F
$$

ILZ028>032-037-038-041>044-048-051>054-059>061-231900-
CENTRAL ILLINOIS

CITY           SKY/WX    TMP DP  RH WIND       PRES   REMARKS
PONTIAC        SUNNY     68  26  20 NE8G18    30.10F
BLOOMINGTON    SUNNY     67  30  25 N15       30.08F
DECATUR        SUNNY     67  36  31 NE15      30.06F
PEORIA         SUNNY     67  32  27 NE9G17    30.10F
6HR MIN TEMP:  40; 6HR MAX TEMP:  67;

LINCOLN*       SUNNY     68  34  28 N9        30.08F
SPRINGFIELD    SUNNY     69  33  26 E13       30.07F
6HR MIN TEMP:  39; 6HR MAX TEMP:  69;

TAYLORVILLE    SUNNY     67  31  25 NE16G23   30.06F
6HR MIN TEMP:  40; 6HR MAX TEMP:  67;

$$

ILZ033-039-045-046-055>057-062-063-231900-
EAST-CENTRAL ILLINOIS

CITY           SKY/WX    TMP DP  RH WIND       PRES   REMARKS
CHAMPAIGN      SUNNY     68  30  24 N13G21    30.07F
RANTOUL*       SUNNY     69  30  23 NE12G20   30.07F
MATTOON        SUNNY     67  32  27 NE15      30.03F
PARIS*         SUNNY     67  32  27 NE12G21   30.04F
$$

ILZ079-100>102-231900-
SOUTHWEST ILLINOIS

CITY           SKY/WX    TMP DP  RH WIND       PRES   REMARKS
BELLEVILLE     SUNNY     67  34  29 N14G20    30.03F
CAHOKIA*       SUNNY     68  31  25 N14G23    30.06F
SPARTA*        SUNNY     62  38  40 NE16G25   30.04F
$$

ILZ064>066-069>071-074>076-080>082-084>086-088>090-092>094-231900-
SOUTH-CENTRAL ILLINOIS

CITY           SKY/WX    TMP DP  RH WIND       PRES   REMARKS
CARBONDALE     SUNNY     63  42  46 N15G23    30.00F
6HR MIN TEMP:  45; 6HR MAX TEMP:  63;

CAIRO*         SUNNY     62  44  52 N16G25    29.95F
EFFINGHAM*     SUNNY     66  34  30 N12G21    30.04F
MARION         SUNNY     63  43  48 N18G25    30.00S
MT. VERNON     SUNNY     64  36  35 NE10G20   30.01F
CENTRALIA*     SUNNY     65  39  38 NE12G21   30.01F
SALEM*         SUNNY     66  35  32 N17G25    30.02F
$$

ILZ067-068-072-073-078-083-087-091-231900-
SOUTHEAST ILLINOIS

CITY           SKY/WX    TMP DP  RH WIND       PRES   REMARKS
LAWRENCEVILLE  SUNNY     67  36  31 NE17G26   30.00F
FLORA*         SUNNY     66  34  31 NE15G22   30.01F
FAIRFIELD*     SUNNY     64  38  39 N9        30.00F
HARRISBURG*    SUNNY     62  43  49 N17G26    29.98F
ROBINSON*      SUNNY     66  33  28 NE12G22   30.01F
CARMI*         MOSUNNY   64  44  47 NE14G25   29.97F
$$

ABBREVIATIONS USED IN REMARKS
   TC - TEMPERATURE IN CELSIUS
  WCI - WIND CHILL INDEX
   HX - HEAT INDEX
  VSB - VISIBILITY
$$





USA.gov is the U.S. government's official web portal to all federal, state and local government web resources and services.